Location: Krakow
(50.0830°N, 19.9170°E)
Time: 09:57:54
(UTC+01:00)

Transit 2A - Pass Details

Date: 16 February 2023
Orbit: 591 x 964 km, 66.7° (Epoch: 21 March)

Event Time Altitude Azimuth Distance (km) Brightness Sun altitude
Rises 00:20:26 0° 310° (NW) 3,579 - -52.0°
Reaches altitude 10° 00:24:27 10° 284° (WNW) 2,676 - -51.9°
Maximum altitude 00:27:09 13° 259° (WSW) 2,472 - -51.8°
Drops below altitude 10° 00:29:51 10° 233° (SW) 2,697 - -51.7°
Sets 00:33:58 0° 208° (SSW) 3,633 - -51.6°
